Location: Unspecified
(58.9933°N, 5.6375°E)
Time: 21:15:04
(UTC+02:00)

Resurs 1-4 Rocket - Visible Passes

Search period start: 28 June 2017 00:00
Search period end: 08 July 2017 00:00
Orbit: 801 x 813 km, 98.5° (Epoch: 27 June)

Date Brightness Start Highest point End Pass type
(mag) Time Alt. Az. Time Alt. Az. Time Alt. Az.
29 Jun 4.3 02:40:49 10° NE 02:44:29 18° E 02:48:09 10° SE visible
30 Jun 4.5 02:17:12 10° NE 02:19:29 13° E 02:21:47 10° ESE visible
02 Jul 3.8 03:06:32 10° NNE 03:11:01 27° E 03:15:30 10° SSE visible
03 Jul 4.3 02:42:23 10° NE 02:46:07 19° E 02:49:50 10° SE visible
04 Jul 4.5 02:18:41 10° NE 02:21:07 13° E 02:23:33 10° ESE visible
06 Jul 3.8 03:08:06 10° NNE 03:12:38 28° E 03:17:09 10° SSE visible
07 Jul 4.2 02:43:56 10° NE 02:47:45 19° E 02:51:31 10° SE visible
